Regional Weather Roundup
Issued by NWS State College, PA

Home | Current Version | Previous Version | Graphics & Text | Print | Product List | Glossary On
Versions: 1 2 3 4 5 6 7 8 9 10 11 12 13 14 15 16 17 18 19 20 21 22 23 24 25 26 27 28 29 30 31 32 33 34 35 36 37 38 39 40 41 42 43 44 45 46 47 48 49 50
000
ASUS41 KCTP 300310
RWRCTP

REGIONAL WEATHER ROUNDUP
NATIONAL WEATHER SERVICE STATE COLLEGE PA
1100 PM EDT SUN MAR 29 2015

Note: "fair" indicates few or no clouds below 12,000 feet with no
significant weather and/or obstructions to visibility.

* = STATION THAT DOES NOT REPORT PRECIPITATION /E.G. RAIN...SNOW...ETC/
    THUNDER OR FOG.

PAZ002>004-007>009-013>016-020>023-029>032-300400-
WESTERN PENNSYLVANIA

CITY           SKY/WX    TMP DP  RH WIND       PRES   REMARKS
ERIE           CLOUDY    41  19  41 S18       29.87F
MEADVILLE      CLOUDY    37  19  48 S10       29.89F
FRANKLIN*      CLOUDY    36  19  51 S8        29.92F
NEW CASTLE     MOCLDY    42  16  35 SW18G25   29.96R
BEAVER COUNTY  NOT AVBL
BUTLER*        CLOUDY    41   9  26 SW17G31   29.95F
PITTSBURGH INT FLURRIES  39  27  62 SW22G36   29.97R
PITTSBURGH     CLOUDY    42  14  32 SW25G40   29.96F
INDIANA*       CLOUDY    39  12  33 S6        29.99F
LATROBE        NOT AVBL
WASHINGTON CO* CLOUDY    37  27  65 SW9G26    29.99F
$$

PAZ004>006-010>012-017>019-024>028-033>037-041-042-045-046-049>053-300400-
CENTRAL PENNSYLVANIA

CITY           SKY/WX    TMP DP  RH WIND       PRES   REMARKS
BRADFORD       LGT SNOW  31  23  72 SW12G20   29.89F
DUBOIS         CLOUDY    37  18  46 SW5       29.92F
CLEARFIELD     CLOUDY    38  10  31 S7        29.97F
JOHNSTOWN      CLOUDY    37   7  28 S8        29.94F
ALTOONA        CLOUDY    38   8  29 S10       30.00F
STATE COLLEGE  CLOUDY    38   6  26 SW9       30.01S
WILLIAMSPORT   CLOUDY    40   7  25 S25G31    30.01F
SELINSGROVE    CLOUDY    40  12  32 S7        30.06F
FT INDIANTOWN  CLOUDY    33  13  43 NW1       30.10F
CAPITAL CITY   CLOUDY    39   6  25 S8        30.09F
HARRISBURG     CLOUDY    39  11  31 S8        30.09F
YORK           CLOUDY    38   8  29 VRB3      30.10F
$$

PAZ038>040-043-044-047-048-054-055-060>062-067>071-300400-
EASTERN PENNSYLVANIA

CITY           SKY/WX    TMP DP  RH WIND       PRES   REMARKS
SCRANTON       MOCLDY    37   7  28 SW9G18    30.03F
MOUNT POCONO   PTCLDY    31   8  38 SW10      30.02F
ALLENTOWN      PTCLDY    38  10  31 S9        30.11F
QUAKERTOWN*    PTCLDY    34  10  37 S6        30.12F
READING        PTCLDY    36  12  37 S9        30.10F
LANCASTER      MOCLDY    36  15  42 S9        30.10F
COATESVILLE    PTCLDY    32  18  55 CALM      30.12F
POTTSTOWN      PTCLDY    35  11  36 VRB5      30.14F
BLUE BELL      PTCLDY    36  16  44 S6        30.13F
DOYLESTOWN     PTCLDY    34  11  38 S3        30.12F
WILLOW GROVE   NOT AVBL
NORTH PHILA    PTCLDY    39  10  30 S7        30.17F
PHILADELPHIA   PTCLDY    37  15  40 S8        30.17F
$$



USA.gov is the U.S. government's official web portal to all federal, state and local government web resources and services.